{"data":{"norad_id":67276,"epoch":"2026-05-25T03:36:51.662016Z","epoch_age_seconds":61909,"freshness":"FRESH","line1":"1 67276U 25313AE  26145.15059794  .00006947  00000+0  30352-3 0  9991","line2":"2 67276  97.3910 220.0660 0015476  89.8796 270.4214 15.22307891 22445","mean_motion":15.22307891,"eccentricity":0.0015476,"inclination_deg":97.391,"raan_deg":220.066,"arg_perigee_deg":89.8796,"mean_anomaly_deg":270.4214,"bstar":0.00030352,"rev_number":2244,"period_min":94.593216557136,"perigee_km":488.23835664605,"apogee_km":509.52410347173,"semimajor_km":6877.0182300589,"source":"CELESTRAK","updated_at":"2026-05-25T13:38:06.851934Z"}}